QPF
0.00 0.00 0.00 0.00 0.00 0.00 0.00 0.00 0.00 0.00 0.00 0.00 0.00 0.00 0.00 0.00 0.00 0.00 0.00 0.00 0.00 0.00 0.00 0.00 0.00 0.00 0.00 0.00 0.00 0.00 0.00 0.00
0.00 0.00 0.00 0.00 0.00 0.00 0.00 0.00 0.00 0.00 0.00 0.00 0.00 0.00 0.00 0.00 0.00 0.00 0.00 0.00 0.00 0.00 0.00 0.00 0.00 0.00 0.00 0.00 0.00 0.00 0.00 0.00
0.00 0.00 0.00 0.00 0.00 0.00 0.00 0.00 0.00 0.00 0.00 0.00 0.00 0.00 0.00 0.00 0.00 0.00 0.00 0.00 0.00 0.00 0.00 0.00 0.00 0.00 0.00 0.00 0.00 0.00 0.00 0.00
0.00 0.00 0.00 0.00 0.00 0.00 0.00 0.00 0.00 0.00 0.00 0.00 0.00 0.00 0.00 0.00 0.00 0.00 0.00 0.00 0.00 0.00 0.00 0.00 0.00 0.00 0.00 0.00 0.00 0.00 0.00 0.00
0.00 0.00 0.00 0.00 0.00 0.00 0.00 0.00 0.00 0.00 0.00 0.00 0.00 0.00 0.00 0.00 0.00 0.00 0.00 0.00 0.00 0.00 0.00 0.00 0.00 0.00 0.00 0.00 0.00 0.00 0.00 0.00
0.00 0.00 0.00 0.00 0.00 0.00 0.00 0.00 0.00 0.00 0.00 0.00 0.00 0.00 0.00 0.00 0.00 0.00 0.00 0.00 0.00 0.00 0.00 0.00 0.00 0.00 0.00 0.00 0.00 0.00 0.00 0.00
0.00 0.00 0.00 0.00 0.00 0.00 0.00 0.00 0.00 0.00 0.00 0.00 0.00 0.00 0.00 0.00 0.00 0.00 0.00 0.00 0.00 0.00 0.00 0.00 0.00 0.00 0.00 0.00 0.00 0.00 0.00 0.00
0.00 0.00 0.00 0.00 0.00 0.00 0.00 0.00 0.00 0.00 0.00 0.00 0.00 0.01 0.01 0.00 0.00 0.00 0.00 0.00 0.00 0.00 0.00 0.00 0.00 0.00 0.00 0.00 0.00 0.00 0.00 0.00
0.00 0.00 0.00 0.00 0.00 0.00 0.00 0.00 0.00 0.00 0.00 0.00 0.01 0.03 0.01 0.01 0.00 0.00 0.00 0.00 0.00 0.01 0.00 0.00 0.00 0.00 0.00 0.00 0.00 0.00 0.00 0.00
0.00 0.00 0.00 0.00 0.00 0.00 0.00 0.00 0.00 0.00 0.00 0.00 0.01 0.05 0.05 0.04 0.01 0.01 0.01 0.00 0.00 0.00 0.00 0.01 0.01 0.00 0.00 0.00 0.00 0.00 0.00 0.00
0.00 0.00 0.00 0.00 0.00 0.00 0.00 0.00 0.00 0.00 0.00 0.00 0.00 0.01 0.04 0.06 0.05 0.05 0.03 0.02 0.01 0.01 0.00 0.00 0.00 0.01 0.01 0.00 0.00 0.00 0.00 0.00
0.00 0.00 0.00 0.00 0.00 0.00 0.00 0.00 0.00 0.00 0.00 0.00 0.00 0.00 0.00 0.03 0.06 0.06 0.05 0.03 0.03 0.02 0.01 0.01 0.03 0.08 0.07 0.01 0.00 0.00 0.00 0.00
0.00 0.00 0.00 0.00 0.00 0.00 0.00 0.00 0.00 0.00 0.00 0.00 0.00 0.00 0.01 0.02 0.03 0.04 0.04 0.03 0.04 0.07 0.10 0.08 0.06 0.08 0.10 0.03 0.01 0.00 0.00 0.03
0.00 0.00 0.00 0.00 0.00 0.00 0.00 0.00 0.00 0.00 0.00 0.00 0.00 0.00 0.00 0.01 0.02 0.02 0.02 0.01 0.01 0.02 0.05 0.08 0.14 0.19 0.13 0.06 0.04 0.03 0.03 0.01
0.00 0.00 0.00 0.00 0.00 0.00 0.00 0.00 0.00 0.00 0.00 0.00 0.00 0.00 0.00 0.00 0.01 0.01 0.02 0.02 0.02 0.01 0.01 0.01 0.04 0.18 0.30 0.32 0.26 0.21 0.19 0.15
0.00 0.00 0.00 0.00 0.00 0.00 0.00 0.00 0.00 0.00 0.00 0.00 0.00 0.00 0.01 0.00 0.00 0.00 0.00 0.00 0.00 0.01 0.02 0.01 0.02 0.03 0.06 0.11 0.22 0.38 0.45 0.39
0.00 0.00 0.00 0.00 0.00 0.00 0.00 0.00 0.00 0.00 0.00 0.00 0.00 0.00 0.01 0.02 0.02 0.00 0.00 0.00 0.00 0.00 0.00 0.00 0.00 0.01 0.01 0.02 0.04 0.08 0.14 0.19
0.00 0.00 0.00 0.00 0.00 0.00 0.00 0.00 0.00 0.00 0.00 0.00 0.00 0.00 0.02 0.03 0.04 0.04 0.02 0.00 0.00 0.00 0.00 0.00 0.00 0.00 0.00 0.00 0.00 0.00 0.00 0.02
0.00 0.00 0.00 0.00 0.00 0.00 0.00 0.00 0.00 0.00 0.00 0.00 0.00 0.00 0.00 0.01 0.03 0.04 0.05 0.03 0.01 0.00 0.00 0.00 0.00 0.00 0.00 0.00 0.00 0.00 0.00 0.00
MSLP
1013.90 1013.66 1013.44 1012.85 1012.20 1011.23 1011.75 1012.40 1012.96 1013.07 1013.28 1013.64 1013.91 1014.27 1014.59 1014.32 1014.20 1014.38 1015.04 1015.64 1016.02 1016.20 1016.26 1016.33 1016.64 1016.67 1016.73 1016.89 1017.01 1017.11 1017.23 1017.04
1015.09 1014.86 1014.61 1014.23 1014.03 1013.44 1012.72 1011.95 1012.58 1013.14 1012.82 1012.57 1012.59 1012.80 1013.52 1014.02 1013.75 1013.73 1014.11 1014.73 1015.05 1015.37 1015.46 1015.56 1016.07 1016.11 1016.10 1016.30 1016.59 1016.79 1016.56 1016.88
1015.89 1015.56 1015.37 1015.13 1015.10 1014.78 1014.17 1013.58 1012.52 1012.34 1012.51 1012.25 1012.02 1011.92 1012.14 1012.65 1012.81 1012.78 1013.17 1013.23 1013.78 1014.16 1014.46 1014.55 1014.96 1015.38 1015.64 1015.74 1016.03 1016.01 1015.99 1016.12
1016.81 1016.50 1016.09 1015.87 1015.56 1015.49 1015.11 1014.56 1013.74 1012.75 1011.88 1011.91 1011.79 1011.76 1011.66 1011.54 1011.59 1011.68 1011.91 1012.58 1012.70 1012.97 1013.39 1013.85 1013.99 1014.40 1014.47 1014.99 1015.31 1015.44 1015.15 1015.41
1017.47 1017.34 1016.95 1016.59 1016.66 1016.59 1015.93 1015.00 1014.29 1013.11 1012.29 1011.41 1011.29 1010.91 1010.44 1010.26 1010.45 1010.70 1010.93 1011.33 1011.65 1011.90 1011.96 1012.38 1013.17 1013.38 1013.55 1013.71 1014.40 1014.64 1015.00 1014.32
1018.07 1018.07 1017.84 1017.74 1017.39 1017.05 1016.50 1015.70 1015.08 1014.38 1013.06 1011.78 1010.99 1010.69 1010.43 1010.21 1010.01 1009.96 1010.24 1010.35 1010.68 1011.11 1011.42 1011.85 1011.75 1012.18 1012.63 1013.08 1013.31 1013.73 1013.89 1014.04
1018.71 1018.78 1018.67 1018.43 1018.13 1017.66 1017.21 1016.28 1016.00 1015.47 1014.57 1013.33 1011.70 1010.62 1010.45 1010.21 1009.72 1009.39 1009.50 1009.58 1009.83 1010.18 1010.57 1010.85 1011.05 1011.25 1011.35 1011.79 1012.57 1012.89 1013.18 1013.22
1019.23 1019.15 1019.30 1019.05 1018.72 1018.56 1017.92 1017.67 1016.85 1016.79 1015.94 1014.85 1013.96 1012.32 1010.52 1010.10 1009.82 1009.36 1009.01 1008.86 1008.92 1009.16 1009.70 1010.00 1010.19 1010.38 1010.63 1010.98 1011.33 1011.58 1011.84 1012.18
1019.77 1019.91 1020.01 1019.94 1019.78 1019.59 1019.09 1018.89 1018.29 1017.68 1017.19 1016.10 1015.23 1014.50 1013.38 1011.06 1009.75 1009.11 1008.65 1008.23 1008.20 1008.31 1008.55 1008.83 1009.01 1009.27 1009.50 1009.85 1009.96 1010.21 1010.58 1010.80
1020.19 1020.25 1020.33 1020.25 1020.21 1020.29 1020.29 1019.47 1019.37 1018.88 1017.99 1017.34 1016.37 1015.43 1014.35 1013.81 1012.59 1011.37 1009.64 1008.35 1007.61 1007.41 1007.47 1007.91 1008.26 1008.25 1008.21 1008.32 1008.48 1008.59 1008.90 1009.28
1020.49 1020.53 1020.61 1020.65 1020.56 1020.91 1020.51 1020.27 1020.15 1019.73 1018.52 1017.87 1017.26 1016.27 1015.52 1015.11 1013.74 1012.45 1010.85 1011.34 1009.15 1007.00 1006.58 1006.65 1007.00 1007.24 1007.39 1007.44 1007.29 1007.53 1007.82 1008.12
1020.70 1020.83 1020.80 1020.89 1020.84 1020.74 1020.61 1020.85 1020.44 1019.95 1019.31 1018.39 1017.99 1017.13 1016.26 1015.09 1014.23 1014.37 1012.67 1011.68 1011.11 1008.76 1007.27 1006.01 1005.88 1006.16 1006.36 1006.38 1006.44 1006.44 1006.50 1006.94
1020.75 1020.96 1020.98 1020.95 1020.81 1020.84 1020.59 1020.76 1020.77 1019.76 1019.81 1018.88 1018.61 1017.80 1016.57 1015.78 1015.34 1014.31 1013.23 1012.54 1011.36 1009.74 1009.10 1006.69 1005.95 1005.37 1005.58 1005.89 1005.66 1005.67 1005.52 1005.72
1020.81 1020.82 1021.02 1021.03 1020.95 1020.96 1020.59 1020.35 1020.28 1020.10 1019.58 1019.30 1018.49 1017.85 1016.95 1016.30 1015.80 1015.12 1014.78 1012.87 1011.22 1010.34 1008.93 1007.81 1006.87 1006.00 1005.20 1004.92 1004.93 1004.76 1004.80 1004.93
1021.08 1021.17 1021.17 1021.16 1021.15 1021.02 1020.74 1020.71 1020.58 1020.38 1019.69 1018.85 1018.33 1018.27 1017.49 1017.02 1016.38 1015.42 1014.61 1013.86 1012.45 1010.42 1009.84 1008.73 1007.63 1007.37 1005.85 1005.53 1004.64 1004.40 1004.24 1004.74
1021.30 1021.37 1021.39 1021.36 1021.26 1021.02 1020.83 1020.62 1020.15 1019.88 1019.41 1019.14 1017.96 1018.03 1019.13 1016.42 1016.99 1015.79 1014.84 1013.41 1012.72 1011.79 1010.39 1009.48 1009.01 1008.24 1007.71 1007.49 1006.82 1005.76 1005.10 1004.80
1021.47 1021.64 1021.65 1021.57 1021.42 1021.33 1020.98 1020.57 1020.17 1019.72 1019.28 1018.80 1018.44 1018.04 1017.15 1019.44 1016.56 1015.68 1015.04 1013.46 1012.93 1011.61 1011.29 1010.00 1008.85 1008.26 1008.58 1008.64 1008.13 1006.64 1005.44 1003.84
1021.72 1021.85 1021.86 1021.84 1021.69 1021.54 1021.22 1020.87 1020.39 1020.02 1019.34 1018.93 1018.70 1018.40 1018.29 1017.25 1016.41 1016.18 1015.79 1014.10 1012.95 1011.51 1011.50 1010.89 1009.62 1008.82 1008.60 1008.63 1007.60 1007.20 1006.00 1004.56
1022.01 1022.09 1022.06 1021.98 1021.81 1021.57 1021.34 1020.89 1020.29 1019.87 1019.43 1019.08 1018.68 1018.20 1017.37 1016.39 1015.79 1015.55 1015.18 1014.70 1014.62 1010.95 1011.64 1011.84 1009.78 1009.00 1008.47 1008.35 1007.82 1007.02 1005.88 1004.38
Thickness
5717 5726 5732 5741 5750 5761 5759 5758 5757 5758 5756 5753 5753 5751 5748 5750 5751 5749 5744 5740 5737 5736 5735 5734 5732 5732 5733 5732 5731 5731 5730 5731
5698 5705 5712 5719 5724 5732 5739 5748 5748 5745 5750 5753 5754 5754 5749 5746 5749 5749 5746 5742 5741 5738 5737 5736 5733 5733 5733 5732 5730 5728 5730 5730
5679 5686 5691 5697 5700 5706 5715 5722 5735 5741 5744 5749 5752 5752 5752 5749 5749 5752 5750 5749 5744 5743 5742 5741 5738 5735 5732 5732 5729 5728 5729 5731
5659 5664 5670 5675 5682 5687 5694 5702 5712 5724 5737 5741 5744 5746 5748 5751 5754 5755 5754 5748 5747 5746 5743 5741 5740 5737 5737 5732 5730 5728 5728 5729
5642 5645 5648 5654 5658 5663 5674 5685 5695 5707 5717 5727 5731 5739 5744 5753 5751 5752 5751 5747 5746 5746 5747 5744 5739 5739 5738 5737 5732 5729 5724 5728
5620 5623 5627 5629 5634 5641 5652 5664 5673 5682 5697 5711 5721 5727 5735 5740 5744 5746 5745 5745 5743 5740 5739 5738 5740 5738 5736 5733 5730 5726 5725 5721
5597 5598 5600 5603 5610 5617 5625 5639 5647 5658 5670 5683 5700 5714 5718 5720 5727 5734 5738 5740 5738 5736 5735 5735 5736 5735 5735 5731 5724 5721 5719 5719
5574 5575 5574 5576 5581 5588 5598 5605 5620 5627 5640 5654 5665 5681 5702 5708 5711 5718 5725 5730 5733 5733 5728 5727 5728 5729 5729 5725 5721 5720 5719 5715
5561 5558 5554 5553 5555 5558 5567 5574 5585 5597 5607 5623 5635 5646 5658 5682 5698 5705 5712 5720 5725 5728 5727 5726 5726 5724 5724 5722 5722 5721 5718 5716
5552 5550 5547 5545 5543 5540 5540 5550 5556 5567 5580 5591 5606 5618 5630 5638 5643 5663 5687 5703 5716 5721 5723 5721 5719 5721 5723 5723 5722 5721 5720 5719
5541 5539 5537 5535 5534 5529 5528 5529 5532 5540 5555 5568 5579 5593 5603 5609 5623 5636 5652 5655 5683 5708 5714 5717 5715 5716 5715 5715 5719 5719 5715 5714
5535 5530 5527 5525 5523 5523 5523 5517 5519 5522 5530 5544 5553 5565 5578 5593 5603 5606 5619 5629 5642 5671 5691 5705 5710 5710 5708 5708 5710 5712 5711 5708
5530 5522 5517 5512 5513 5513 5515 5509 5505 5515 5513 5525 5529 5541 5556 5569 5577 5588 5603 5607 5619 5640 5643 5677 5690 5701 5699 5694 5698 5702 5705 5704
5523 5518 5509 5503 5500 5499 5502 5504 5501 5498 5505 5508 5516 5525 5536 5546 5555 5564 5572 5589 5604 5620 5635 5651 5667 5677 5686 5690 5689 5694 5695 5695
5515 5508 5503 5497 5492 5490 5489 5486 5486 5489 5493 5498 5502 5507 5515 5523 5531 5544 5554 5564 5577 5599 5609 5623 5640 5646 5663 5667 5677 5679 5682 5679
5506 5501 5496 5491 5486 5483 5480 5478 5482 5481 5484 5483 5493 5490 5480 5510 5509 5522 5534 5548 5556 5569 5582 5595 5605 5614 5624 5627 5638 5650 5654 5657
5499 5492 5487 5483 5480 5475 5473 5471 5470 5472 5473 5474 5477 5478 5487 5462 5493 5503 5512 5530 5537 5550 5556 5571 5585 5593 5591 5593 5603 5620 5633 5647
5491 5484 5479 5474 5471 5467 5464 5461 5459 5455 5458 5459 5458 5462 5461 5474 5480 5478 5484 5503 5515 5531 5532 5541 5557 5568 5572 5574 5585 5593 5605 5617
5482 5476 5471 5466 5462 5458 5454 5453 5453 5451 5449 5446 5444 5446 5453 5464 5472 5468 5471 5481 5476 5511 5511 5509 5534 5545 5551 5554 5562 5574 5587 5602